Погода в Минхеде

Великобритания     51°12′09″N   3°28′46″W
темп.,
°C
ветер,
м/с
пор.,
м/с
влажн.,
%
обл.,
%
осадки,
мм/ч
давл.,
гПа
погр.,
м
13 мая, чт
чт1301:00+9сз6790100 14.8 1007496
04:00+9сз8890100 6.5 1006454
07:00+9сз111192100 12.4 1006564
10:00+9с71091100 5.8 1006639
13:00+10с91084100 9.1 1007709
16:00+10ссз81188100 2.0 1007686
19:00+10ссз91190100 3.4 1007763
22:00+10сз91091100 5.1 1008611
14 мая, пт
пт1401:00+10ссз7788100 6.0 1008471
04:00+10с5788100 0.8 1008523
07:00+9св4586100 1.0 1010488
10:00+9в228552 0.0 1011313
13:00+10в448529 0.2 1010274
16:00+12юв4581100 0.6 1008214
19:00+11зсз6783100 3.2 1008456
22:00+10зюз2377100 0.1 1006266
15 мая, сб
сб1501:00+9ю4583100 0.2 1005263
04:00+9юв71083100 0.7 1002973
07:00+10юв788699 1.5 1000643
10:00+10вюв559099 0.6 999412
13:00+11з7108420 1.5 1001857
16:00+12з912780 0.1 1001703
19:00+12зюз811770 0.1 1001592
22:00+10юз711845 0.0 1001552
16 мая, вс
вс1601:00+10юз81084100 0.1 1001456
04:00+9юз7118493 0.0 1000476
07:00+10юз71082100 0.0 1000458
10:00+11юз7976100 0.4 999845
13:00+11ююз7108283 1.3 998939
16:00+11юз61084100 1.3 996754
19:00+12юз81281100 2.5 996810
22:00+11юз101383100 0.4 9961048
17 мая, пн
пн1701:00+11зюз11148894 1.1 995805
04:00+11з10128938 0.1 996766
07:00+10зсз11128879 0.4 998560
10:00+11зсз10128536 0.4 1002627
13:00+11зсз11128454 1.1 1004695
16:00+11зсз1113827 0.1 1007675
19:00+12зсз1012815 0.4 1009510
22:00+11зсз710835 0.3 1012617